�N����,����,�~����,�C��,���x,�C��,����,���ϕ���,�ő�u�ԕ���,�ő厞����,���˗�,�I�_���x,�n�����x,�ő啗���N��,DTYPE
"22/06/01","00:10",0.0,14.2,82.3,1005.5,316.0,2.6,4.7,316.5,0.00,11.3,19.5,"00:00:56",1
"22/06/01","00:20",0.0,14.1,82.7,1005.2,324.5,2.6,4.1,332.4,0.00,11.2,19.3,"00:18:48",1
"22/06/01","00:30",0.0,14.0,83.0,1005.2,324.0,2.5,4.5,327.3,0.00,11.2,19.2,"00:26:56",1
"22/06/01","00:40",0.0,13.9,83.4,1005.0,319.3,2.3,4.0,338.3,0.00,11.2,19.3,"00:35:44",1
"22/06/01","00:50",0.0,13.7,83.8,1005.2,331.8,1.6,2.9,335.1,0.00,11.1,19.2,"00:40:16",1
"22/06/01","01:00",0.0,13.5,84.4,1005.5,297.9,1.5,2.0,313.9,0.00,11.0,19.3,"00:51:28",1
"22/06/01","01:10",0.0,13.4,84.8,1005.7,294.3,1.5,2.0,323.2,0.00,10.9,19.2,"01:08:00",1
"22/06/01","01:20",0.0,13.2,85.4,1005.7,315.7,1.5,2.5,321.5,0.00,10.8,18.9,"01:19:12",1
"22/06/01","01:30",0.0,13.0,85.8,1005.5,321.1,1.7,2.5,312.4,0.00,10.7,19.1,"01:20:08",1
"22/06/01","01:40",0.0,12.9,86.5,1005.7,285.4,1.6,2.0,304.7,0.00,10.7,19.2,"01:32:16",1
"22/06/01","01:50",0.0,12.7,87.1,1005.7,299.5,1.5,2.0,267.6,0.00,10.7,18.9,"01:44:08",1
"22/06/01","02:00",0.0,12.9,87.7,1005.0,324.0,1.7,3.2,341.1,0.00,11.0,19.0,"01:54:00",1
"22/06/01","02:10",0.0,12.8,88.0,1005.5,293.3,1.2,2.1,312.1,0.00,10.9,19.0,"02:03:20",1
"22/06/01","02:20",0.0,12.7,88.4,1005.7,290.4,1.6,2.2,324.6,0.00,10.9,18.9,"02:16:24",1
"22/06/01","02:30",0.0,12.9,88.8,1005.5,312.7,2.3,4.0,340.3,0.00,11.1,18.9,"02:29:20",1
"22/06/01","02:40",0.0,13.4,88.7,1005.0,337.0,3.1,5.2,328.4,0.00,11.6,18.7,"02:38:24",1
"22/06/01","02:50",0.0,13.4,88.4,1005.5,308.3,2.5,4.4,304.7,0.00,11.6,18.8,"02:42:00",1
"22/06/01","03:00",0.0,13.4,88.1,1005.5,314.6,1.7,3.1,337.2,0.00,11.5,18.7,"02:51:44",1
"22/06/01","03:10",0.0,13.2,88.1,1005.7,334.7,1.6,2.5,339.9,0.00,11.3,18.7,"03:04:32",1
"22/06/01","03:20",0.0,13.1,88.3,1005.7,328.4,2.3,4.4,334.8,0.00,11.3,18.8,"03:12:48",1
"22/06/01","03:30",0.0,13.1,88.4,1005.7,311.3,1.8,4.0,316.2,0.00,11.3,18.7,"03:23:12",1
"22/06/01","03:40",0.0,12.9,88.5,1006.0,281.1,1.3,2.1,266.6,0.00,11.1,18.8,"03:37:44",1
"22/06/01","03:50",0.0,12.8,88.8,1006.2,300.4,1.6,2.7,313.1,0.00,11.0,18.5,"03:45:20",1
"22/06/01","04:00",0.0,12.9,89.0,1006.0,329.1,1.8,2.6,307.2,0.00,11.2,18.6,"03:51:28",1
"22/06/01","04:10",0.0,12.9,89.4,1005.5,338.0,1.7,2.6,325.0,0.00,11.2,18.4,"04:07:36",1
"22/06/01","04:20",0.0,13.0,89.7,1005.7,334.8,2.0,4.0,319.4,0.00,11.4,18.3,"04:13:28",1
"22/06/01","04:30",0.0,12.7,89.9,1005.5,308.8,1.3,2.0,311.0,0.00,11.1,18.4,"04:24:32",1
"22/06/01","04:40",0.0,12.5,90.2,1005.7,296.0,1.6,2.5,315.5,0.00,11.0,18.3,"04:36:00",1
"22/06/01","04:50",0.0,12.5,90.6,1005.7,320.3,2.1,3.2,333.6,0.00,11.0,18.3,"04:46:16",1
"22/06/01","05:00",0.0,12.7,90.9,1006.0,312.2,2.8,4.1,332.0,0.00,11.3,18.2,"04:58:00",1
"22/06/01","05:10",0.0,12.8,90.9,1006.0,323.0,2.8,3.9,327.4,0.00,11.4,18.2,"05:00:08",1
"22/06/01","05:20",0.0,12.9,91.0,1005.7,310.6,2.2,3.7,321.7,0.00,11.5,18.4,"05:12:48",1
"22/06/01","05:30",0.0,12.8,91.1,1006.0,286.7,1.2,2.2,322.0,0.00,11.4,18.1,"05:23:52",1
"22/06/01","05:40",0.0,12.8,91.3,1006.2,290.7,1.3,1.8,263.9,0.00,11.5,18.2,"05:36:32",1
"22/06/01","05:50",0.0,12.9,91.4,1006.2,314.6,2.2,3.2,332.0,0.01,11.6,18.2,"05:44:56",1
"22/06/01","06:00",0.0,12.9,91.5,1006.2,313.8,2.1,3.4,336.3,0.01,11.6,18.3,"05:59:28",1
"22/06/01","06:10",0.0,13.0,91.6,1006.2,309.8,1.8,2.6,321.5,0.01,11.7,18.2,"06:08:16",1
"22/06/01","06:20",0.0,13.2,91.6,1006.2,301.4,1.5,2.5,310.6,0.02,11.9,18.2,"06:13:20",1
"22/06/01","06:30",0.0,13.4,91.7,1006.4,312.8,1.6,2.8,340.8,0.04,12.1,18.1,"06:29:50",1
"22/06/01","06:40",0.0,14.0,91.7,1006.4,326.3,1.6,2.7,333.5,0.07,12.7,18.1,"06:35:34",1
"22/06/01","06:50",0.0,14.8,91.6,1006.7,296.9,0.8,1.4,309.9,0.09,13.5,18.1,"06:44:40",1
"22/06/01","07:00",0.0,15.3,91.1,1006.4,276.9,0.5,0.9,280.5,0.11,13.9,17.9,"06:52:32",1
"22/06/01","07:10",0.0,15.8,90.4,1007.1,276.1,0.6,1.0,274.7,0.15,14.3,17.9,"07:05:12",1
"22/06/01","07:20",0.0,16.8,89.6,1006.9,301.8,0.8,1.7,337.2,0.18,15.1,18.1,"07:17:28",1
"22/06/01","07:30",0.0,17.3,88.0,1007.1,356.5,0.3,1.0,327.6,0.21,15.3,18.0,"07:21:28",1
"22/06/01","07:40",0.0,17.8,85.3,1006.7,152.3,0.2,0.6,54.7,0.24,15.3,17.8,"07:37:20",1
"22/06/01","07:50",0.0,18.2,83.0,1006.7,159.7,0.5,1.3,106.8,0.25,15.3,17.9,"07:42:16",1
"22/06/01","08:00",0.0,18.5,80.0,1006.4,225.5,0.3,1.2,315.5,0.29,15.0,18.1,"07:52:24",1
"22/06/01","08:10",0.0,19.2,76.0,1006.2,24.0,0.7,1.8,359.3,0.32,14.9,17.9,"08:09:04",1
"22/06/01","08:20",0.0,19.9,71.9,1005.7,335.2,0.7,1.6,355.9,0.36,14.7,18.1,"08:12:40",1
"22/06/01","08:30",0.0,20.2,70.0,1005.7,315.5,0.6,1.4,328.4,0.38,14.6,17.8,"08:23:12",1
"22/06/01","08:40",0.0,20.7,68.4,1005.7,346.4,0.6,1.8,358.0,0.41,14.7,18.0,"08:39:12",1
"22/06/01","08:50",0.0,21.1,67.3,1005.5,181.1,0.6,1.2,243.0,0.40,14.8,17.9,"08:46:08",1
"22/06/01","09:00",0.0,21.4,65.2,1005.2,356.8,0.8,1.7,27.8,0.43,14.6,17.7,"08:53:28",1
"22/06/01","09:10",0.0,22.3,63.0,1004.8,58.8,0.6,2.2,359.9,0.39,15.0,18.0,"09:09:40",1
"22/06/01","09:20",0.0,22.3,61.9,1004.5,8.3,1.0,2.6,350.6,0.36,14.7,18.1,"09:15:12",1
"22/06/01","09:30",0.0,22.4,60.8,1004.5,21.7,0.7,2.2,335.2,0.35,14.5,18.2,"09:29:52",1
"22/06/01","09:40",0.0,22.7,59.2,1004.5,7.5,0.8,2.2,317.8,0.35,14.4,18.1,"09:30:08",1
"22/06/01","09:50",0.0,23.3,60.6,1004.1,108.7,0.8,1.9,10.2,0.41,15.3,18.0,"09:41:44",1
"22/06/01","10:00",0.0,23.6,59.6,1004.1,132.3,1.1,2.4,158.1,0.44,15.3,18.1,"09:53:52",1
"22/06/01","10:10",0.0,23.9,57.8,1003.4,175.3,1.1,1.9,161.6,0.49,15.1,18.2,"10:08:32",1
"22/06/01","10:20",0.0,24.3,55.0,1003.1,125.5,1.0,2.9,201.3,0.50,14.7,18.2,"10:15:44",1
"22/06/01","10:30",0.0,24.7,50.2,1003.6,125.9,1.1,2.7,140.0,0.50,13.7,18.2,"10:21:20",1
"22/06/01","10:40",0.0,24.2,48.7,1003.4,194.9,1.6,3.4,230.3,0.43,12.8,18.4,"10:35:36",1
"22/06/01","10:50",0.0,24.6,46.4,1002.9,191.8,1.1,4.0,215.7,0.44,12.4,18.2,"10:40:08",1
"22/06/01","11:00",0.0,24.6,44.6,1002.9,176.1,1.3,2.6,195.9,0.40,11.8,18.5,"10:53:12",1
"22/06/01","11:10",0.0,24.7,42.3,1003.6,174.1,1.5,2.7,140.3,0.41,11.1,18.5,"11:07:36",1
"22/06/01","11:20",0.0,25.4,41.9,1003.4,155.5,1.0,2.1,175.6,0.46,11.6,18.5,"11:10:24",1
"22/06/01","11:30",0.0,25.6,41.3,1003.6,181.2,1.2,3.9,215.8,0.48,11.5,18.3,"11:29:28",1
"22/06/01","11:40",0.0,26.1,44.5,1003.4,190.7,1.0,3.2,183.2,0.48,13.1,18.7,"11:34:48",1
"22/06/01","11:50",0.0,26.2,41.3,1003.6,83.5,0.8,2.1,23.2,0.37,12.1,18.5,"11:45:12",1
"22/06/01","12:00",0.0,26.1,42.6,1003.1,200.9,0.7,2.4,184.6,0.34,12.5,18.7,"11:51:44",1
"22/06/01","12:10",0.0,25.6,39.6,1003.1,149.7,1.0,2.2,101.9,0.31,10.9,18.4,"12:00:48",1
"22/06/01","12:20",0.0,25.3,39.8,1002.6,179.2,1.5,3.5,214.9,0.28,10.7,18.8,"12:16:24",1
"22/06/01","12:30",0.0,25.1,40.4,1002.4,204.3,1.8,2.9,220.3,0.28,10.8,18.8,"12:27:12",1
"22/06/01","12:40",0.0,25.2,40.7,1002.2,159.3,1.3,3.6,126.3,0.29,11.0,18.8,"12:36:32",1
"22/06/01","12:50",0.0,25.7,41.1,1001.9,191.7,1.7,3.6,222.0,0.35,11.5,18.7,"12:45:44",1
"22/06/01","13:00",0.0,26.0,37.2,1002.2,171.0,1.1,2.9,229.7,0.33,10.3,18.7,"12:57:52",1
"22/06/01","13:10",0.0,25.8,42.0,1002.2,191.0,1.5,2.9,239.1,0.32,12.0,18.9,"13:02:16",1
"22/06/01","13:20",0.0,26.1,39.2,1002.2,267.9,0.6,1.6,20.5,0.29,11.2,18.8,"13:10:02",1
"22/06/01","13:30",0.0,26.4,39.9,1001.9,80.0,0.7,1.7,25.0,0.27,11.7,19.2,"13:20:40",1
"22/06/01","13:40",0.0,26.3,39.5,1001.9,129.4,0.7,1.4,128.6,0.27,11.5,19.0,"13:31:20",1
"22/06/01","13:50",0.0,26.2,40.1,1001.9,144.7,0.8,1.7,162.5,0.29,11.6,19.0,"13:41:20",1
"22/06/01","14:00",0.0,26.2,38.2,1001.7,212.6,1.2,2.8,251.9,0.28,10.9,19.0,"13:56:32",1
"22/06/01","14:10",0.0,26.6,41.2,1001.7,143.9,0.7,2.1,211.4,0.30,12.4,19.3,"14:02:08",1
"22/06/01","14:20",0.0,26.8,37.8,1001.9,257.5,0.7,1.8,245.4,0.31,11.3,19.2,"14:18:00",1
"22/06/01","14:30",0.0,27.0,40.0,1001.9,219.4,0.7,2.0,355.3,0.28,12.3,19.1,"14:20:56",1
"22/06/01","14:40",0.0,26.6,37.2,1001.7,194.5,1.1,2.2,202.1,0.28,10.8,19.3,"14:37:52",1
"22/06/01","14:50",0.0,27.2,38.2,1001.5,201.8,0.7,2.1,241.3,0.31,11.8,19.4,"14:48:08",1
"22/06/01","15:00",0.0,26.9,35.4,1001.7,217.8,1.2,2.6,237.3,0.29,10.4,19.4,"14:50:08",1
"22/06/01","15:10",0.0,27.2,37.5,1001.5,280.1,1.1,2.9,198.3,0.34,11.5,19.3,"15:09:28",1
"22/06/01","15:20",0.0,28.2,37.7,1001.5,176.3,0.5,1.9,16.4,0.37,12.5,19.3,"15:10:02",1
"22/06/01","15:30",0.0,27.7,35.4,1001.7,289.8,1.0,2.5,237.9,0.26,11.1,19.2,"15:23:52",1
"22/06/01","15:40",0.0,27.3,36.3,1001.7,187.7,0.8,2.9,231.5,0.23,11.1,19.6,"15:30:02",1
"22/06/01","15:50",0.0,27.5,38.3,1001.5,193.3,1.0,3.5,218.4,0.25,12.1,19.5,"15:40:24",1
"22/06/01","16:00",0.0,27.4,35.0,1001.2,101.6,0.8,2.0,30.3,0.25,10.6,19.5,"15:59:52",1
"22/06/01","16:10",0.0,27.1,38.0,1001.0,164.5,1.2,3.4,229.6,0.21,11.6,19.5,"16:05:44",1
"22/06/01","16:20",0.0,26.9,36.7,1001.0,221.5,0.6,1.6,236.2,0.19,10.9,19.5,"16:12:00",1
"22/06/01","16:30",0.0,27.2,36.6,1001.0,249.5,0.3,1.7,230.2,0.15,11.1,19.6,"16:24:16",1
"22/06/01","16:40",0.0,27.1,36.0,1001.0,31.7,0.5,3.2,348.0,0.13,10.8,19.6,"16:39:44",1
"22/06/01","16:50",0.0,26.7,35.9,1000.5,327.6,1.3,3.2,24.9,0.16,10.4,19.8,"16:44:24",1
"22/06/01","17:00",0.0,26.7,36.6,1000.5,273.4,0.8,2.0,241.3,0.14,10.7,19.8,"16:59:44",1
"22/06/01","17:10",0.0,26.4,38.2,1000.0,243.5,1.1,2.2,256.4,0.14,11.1,19.9,"17:04:56",1
"22/06/01","17:20",0.0,26.4,38.3,1000.0,264.1,1.0,2.4,238.5,0.11,11.1,19.9,"17:10:48",1
"22/06/01","17:30",0.0,26.1,39.3,1000.0,234.4,1.1,2.0,213.5,0.08,11.2,19.8,"17:24:48",1
"22/06/01","17:40",0.0,25.7,39.0,999.6,217.2,1.2,2.5,239.5,0.07,10.8,19.8,"17:38:40",1
"22/06/01","17:50",0.0,25.7,42.8,1000.3,211.2,1.1,2.2,242.6,0.06,12.2,20.1,"17:41:52",1
"22/06/01","18:00",0.0,25.2,43.1,1000.0,210.2,1.0,2.7,233.8,0.05,11.8,20.1,"17:56:32",1
"22/06/01","18:10",0.0,24.8,43.4,1000.0,220.6,1.0,2.5,246.9,0.04,11.6,19.9,"18:07:12",1
"22/06/01","18:20",0.0,24.7,45.5,1000.3,319.3,0.7,1.7,345.6,0.03,12.2,19.9,"18:16:40",1
"22/06/01","18:30",0.0,24.5,48.8,1000.5,321.0,1.1,2.1,349.0,0.04,13.1,19.9,"18:28:48",1
"22/06/01","18:40",0.0,24.3,50.5,1000.5,312.3,0.8,2.4,333.7,0.04,13.4,20.0,"18:32:40",1
"22/06/01","18:50",0.0,24.2,53.7,1000.5,340.0,1.1,3.2,347.7,0.03,14.3,19.8,"18:48:00",1
"22/06/01","19:00",0.0,23.7,55.1,1000.5,293.3,1.0,2.4,354.6,0.02,14.2,19.9,"18:57:44",1
"22/06/01","19:10",0.0,23.1,56.9,1000.8,327.9,1.5,3.1,348.2,0.02,14.1,19.9,"19:07:44",1
"22/06/01","19:20",0.0,22.7,57.9,1001.2,307.8,1.0,2.1,340.3,0.01,14.0,19.9,"19:13:44",1
"22/06/01","19:30",0.0,22.3,59.9,1001.0,328.1,1.3,1.9,341.3,0.00,14.2,20.0,"19:21:52",1
"22/06/01","19:40",0.0,21.7,61.6,1001.2,327.0,1.7,2.5,336.3,0.00,14.0,20.0,"19:37:04",1
"22/06/01","19:50",0.0,21.1,63.0,1001.5,303.2,1.1,2.6,345.0,0.00,13.8,19.9,"19:40:24",1
"22/06/01","20:00",0.0,20.5,64.6,1001.2,296.8,1.3,2.5,331.1,0.00,13.6,19.9,"19:52:48",1
"22/06/01","20:10",0.0,20.3,65.3,1001.5,311.9,1.7,2.8,318.3,0.00,13.6,19.9,"20:04:48",1
"22/06/01","20:20",0.0,19.9,66.3,1001.7,299.1,1.1,1.8,329.7,0.00,13.5,19.9,"20:10:40",1
"22/06/01","20:30",0.0,19.7,67.0,1001.9,299.2,1.3,2.7,327.8,0.00,13.4,19.8,"20:22:24",1
"22/06/01","20:40",0.0,19.5,67.8,1001.7,300.1,1.2,2.0,299.3,0.00,13.4,19.9,"20:34:56",1
"22/06/01","20:50",0.0,19.2,68.5,1001.7,296.0,1.1,1.8,302.2,0.00,13.3,19.7,"20:43:28",1
"22/06/01","21:00",0.0,19.0,69.0,1001.9,313.7,1.5,2.5,326.8,0.00,13.2,19.7,"20:54:48",1
"22/06/01","21:10",0.0,18.8,69.4,1001.7,299.5,1.3,2.4,319.1,0.00,13.1,19.6,"21:03:44",1
"22/06/01","21:20",0.0,18.7,69.5,1001.9,306.0,1.5,2.5,308.8,0.00,13.1,19.6,"21:11:04",1
"22/06/01","21:30",0.0,18.4,70.0,1002.2,310.1,1.1,1.6,307.7,0.00,12.9,19.6,"21:25:28",1
"22/06/01","21:40",0.0,18.4,71.3,1001.9,322.0,1.0,1.8,309.9,0.00,13.2,19.7,"21:39:52",1
"22/06/01","21:50",0.0,17.7,73.2,1002.4,317.3,1.2,1.9,313.7,0.00,12.9,19.4,"21:40:08",1
"22/06/01","22:00",0.0,17.3,74.9,1002.4,312.2,1.6,2.6,315.1,0.00,12.9,19.4,"21:53:52",1
"22/06/01","22:10",0.0,17.3,75.8,1002.4,293.2,1.2,1.8,332.8,0.00,13.0,19.5,"22:00:24",1
"22/06/01","22:20",0.0,17.2,76.1,1002.2,298.9,1.2,2.1,304.4,0.00,13.0,19.4,"22:11:44",1
"22/06/01","22:30",0.0,17.1,76.6,1002.2,297.3,1.2,1.9,287.7,0.00,13.0,19.6,"22:29:28",1
"22/06/01","22:40",0.0,16.9,77.1,1002.2,310.5,1.2,1.7,319.9,0.00,12.9,19.4,"22:32:08",1
"22/06/01","22:50",0.0,16.7,77.8,1002.2,305.2,1.5,2.2,320.1,0.00,12.8,19.5,"22:43:36",1
"22/06/01","23:00",0.0,16.7,78.2,1002.2,293.6,1.2,1.7,303.6,0.00,12.9,19.5,"22:53:44",1
"22/06/01","23:10",0.0,16.5,78.4,1002.2,313.7,1.3,2.0,312.0,0.00,12.8,19.3,"23:05:04",1
"22/06/01","23:20",0.0,16.4,79.0,1002.2,312.5,1.1,1.6,330.2,0.00,12.8,19.2,"23:18:08",1
"22/06/01","23:30",0.0,16.3,80.1,1002.2,335.3,1.1,1.6,323.5,0.00,12.9,19.3,"23:20:56",1
"22/06/01","23:40",0.0,15.9,81.1,1002.2,289.6,1.0,1.4,304.7,0.00,12.7,18.9,"23:30:02",1
"22/06/01","23:50",0.0,15.8,81.9,1002.4,298.9,1.2,1.8,303.5,0.00,12.8,19.1,"23:48:08",1
"22/06/01","24:00",0.0,15.8,82.0,1002.4,308.9,1.7,2.4,322.7,0.00,12.8,19.2,"23:54:40",1
